Location: Lecco
(45.8566°N, 9.3977°E)
Time: 04:49:53
(UTC+02:00)

Transit 4A - Pass Details

Date: 17 August 2020
Orbit: 863 x 982 km, 66.8° (Epoch: 23 September)

Event Time Altitude Azimuth Distance (km) Brightness Sun altitude
Rises 08:30:12 0° 192° (SSW) 3,479 10.8 20.5°
Reaches altitude 10° 08:32:44 10° 186° (S) 2,560 10.2 21.0°
Maximum altitude 08:38:24 48° 114° (ESE) 1,185 9.7 21.9°
Drops below altitude 10° 08:44:16 10° 42° (NE) 2,656 10.9 23.0°
Sets 08:46:55 0° 37° (NE) 3,622 11.4 23.4°
